Content
SEND FEEDBACK

Daily
Averages
Monthly
Summary
Canada

RICHMOND NATURE PARK, BRITISH COLUMBIA


Home > North America > Canada > British Columbia
Elevation: 10 feet     Latitude: 49 10N     Longitude: 123 05W

WEATHER
 
SELECT A DAY
Number of Records: 197,648;   Date Range: 1/1/95 - 10/20/14
 
SHARE

PRINT THIS DATA

[ ← Previous Day ]
WEATHER ALMANAC - JANUARY 20, 2013
[ Next Day → ]
[ °C ]   °F
Weather ElementAverageHighLow
Temperature35.5 °F39.2 °F (4:49 pm)28.4 °F (2:00 am)
Dewpoint21.2 °F37.4 °F (12:00 pm) (7:00 pm)
Humidity94.4 %100 % (5:00 am)90 % (4:00 pm)
Wind Speed4.6 mph9.2 mph (5:51 pm)
Weather ElementAverage
Visibility6.3 mi
Wind DirectionNW (315.1 °)

Weather ElementTotal
Precipitation---
Heating Degree Days31.2 (Base 65)
Averaged from 44 records on January 20, 2013
WEATHER CONDITIONS BREAKOUT
WIND DIRECTION BREAKOUT
WEATHER BY HOUR - JANUARY 20, 2013
[ °C ]   °F
Local TimeTemperatureDewpointHumidityBarometerVisibilityWind DirectionWind SpeedGust SpeedPrecipitationEventsConditions
1:00 AM32.0 °F30.2 °F93 %30.41 in15.0 miCalmMostly Cloudy
2:00 AM28.4 °F26.6 °F93 %30.42 in15.0 miESE (120°)3.5 mphFogShallow Fog
2:28 AM30.2 °F0.0 °F10.0 miCalmFogShallow Fog
2:39 AM30.2 °F0.0 °F8.0 miCalmFogShallow Fog
3:00 AM32.0 °F30.2 °F93 %30.43 in8.0 miCalmOvercast
3:30 AM32.0 °F0.0 °F8.0 miCalmOvercast
3:38 AM32.0 °F0.0 °F5.0 miCalmOvercast
4:00 AM33.0 °F32.0 °F94 %30.41 in3.0 miWNW (290°)3.5 mphMist
4:00 AM33.8 °F32.0 °F93 %30.41 in3.0 miWNW (290°)3.5 mphOvercast
4:07 AM33.8 °F0.0 °F1.2 miNNW (340°)4.6 mphMist
5:00 AM35.6 °F35.6 °F100 %30.41 in2.0 miNW (320°)5.8 mphOvercast
5:39 AM35.6 °F0.0 °F3.0 miNW (320°)6.9 mphOvercast
6:00 AM35.6 °F35.6 °F100 %30.40 in3.0 miNorth (350°)4.6 mphOvercast
6:10 AM35.6 °F0.0 °F0.0 mi3.5 (2013°)0.00 inFog40
7:00 AM35.6 °F33.8 °F93 %30.40 in1.5 miNNW (330°)3.5 mphOvercast
7:23 AM35.6 °F0.0 °F4.0 miNorth (360°)4.6 mphOvercast
7:40 AM35.6 °F0.0 °F1.0 miNorth (360°)3.5 mphOvercast
7:52 AM35.6 °F0.0 °F0.0 miCalm (2013°)0.00 inFog0
8:00 AM35.6 °F33.8 °F93 %30.41 in0.8 miCalmMist
8:11 AM35.6 °F0.0 °F2.0 miCalmOvercast
9:00 AM35.6 °F35.6 °F100 %30.42 in1.8 miNorth (10°)4.6 mphOvercast
10:00 AM37.4 °F35.6 °F93 %30.42 in2.0 miWNW (300°)4.6 mphOvercast
10:00 AM37.0 °F36.0 °F95 %30.42 in2.0 miNNW (330°)3.5 mphMist
10:39 AM37.4 °F0.0 °F4.0 miNW (310°)4.6 mphOvercast
11:00 AM37.4 °F35.6 °F93 %30.42 in4.0 miNW (320°)5.8 mphOvercast
12:00 PM37.4 °F37.4 °F100 %30.40 in6.0 miNNW (330°)3.5 mphOvercast
1:00 PM37.4 °F35.6 °F93 %30.38 in8.0 miWNW (300°)4.6 mphOvercast
2:00 PM37.4 °F35.6 °F93 %30.36 in10.0 miWest (280°)5.8 mphOvercast
3:00 PM37.4 °F35.6 °F93 %30.35 in12.0 miNW (320°)6.9 mphOvercast
4:00 PM38.0 °F36.0 °F90 %30.35 in12.0 miWNW (300°)8.1 mphOvercast
4:00 PM37.4 °F35.6 °F93 %30.35 in12.0 miWNW (300°)6.9 mphOvercast
4:49 PM39.2 °F0.0 °F12.0 miWNW (290°)8.1 mphOvercast
5:00 PM37.4 °F35.6 °F93 %30.33 in12.0 miWNW (300°)8.1 mphOvercast
5:51 PM35.6 °F0.0 °F12.0 miWNW (300°)9.2 mphOvercast
6:00 PM35.6 °F35.6 °F100 %30.32 in12.0 miWNW (300°)9.2 mphMostly Cloudy
7:00 PM35.6 °F33.8 °F93 %30.31 in10.0 miWNW (300°)8.1 mphMostly Cloudy
7:38 PM35.6 °F0.0 °F8.0 miWNW (300°)8.1 mphMostly Cloudy
8:00 PM37.4 °F35.6 °F93 %30.31 in8.0 miWNW (300°)6.9 mphMostly Cloudy
8:52 PM37.4 °F0.0 °F8.0 miNW (320°)4.6 mphMostly Cloudy
9:00 PM37.4 °F35.6 °F93 %30.31 in8.0 miWNW (300°)6.9 mphMostly Cloudy
10:00 PM37.0 °F36.0 °F95 %30.31 in7.0 miNW (310°)6.9 mphOvercast
10:00 PM37.4 °F35.6 °F93 %30.31 in8.0 miNW (310°)6.9 mphOvercast
11:00 PM37.4 °F35.6 °F93 %30.31 in5.0 miNNW (330°)5.8 mphOvercast
11:50 PM37.4 °F0.0 °F1.5 miCalmOvercast
Hourly data recorded from CYVR, located miles away from Richmond Nature Park, British Columbia







STORIES FROM OUR PARTNERS